This is the latest recevied weather packets stored in our database for station/object ALANSN-2. If no packets are shown the sender has not sent any weather packets the latest 10 day(s).
| Time | Temp. | Humidity | Pressure | Rain* | Wind** | Luminosity | Snow |
|---|---|---|---|---|---|---|---|
| 1788020220 | 23.33° C | 80% | 1029.5 hPa | 0 mm | - | 120 W/m² | - |
| 1788019920 | 23.33° C | 80% | 1029.5 hPa | 0 mm | - | 120 W/m² | - |
| 1788019618 | 22.78° C | 80% | 1029.4 hPa | 0 mm | - | 124 W/m² | - |
| 1788019320 | 22.78° C | 81% | 1029.6 hPa | 0 mm | - | 199 W/m² | - |
| 1788019017 | 22.78° C | 81% | 1029.6 hPa | 0 mm | - | 199 W/m² | - |
| 1788018717 | 22.22° C | 82% | 1029.2 hPa | 0 mm | - | 193 W/m² | - |
| 1788018417 | 22.22° C | 81% | 1029.4 hPa | 0 mm | - | 186 W/m² | - |
| 1788018119 | 22.22° C | 81% | 1029.4 hPa | 0 mm | - | 186 W/m² | - |
| 1788017820 | 22.22° C | 82% | 1029.2 hPa | 0 mm | - | 147 W/m² | - |
| 1788017519 | 22.22° C | 82% | 1029.3 hPa | 0 mm | - | 172 W/m² | - |
| 1788017220 | 22.22° C | 82% | 1029.3 hPa | 0 mm | - | 172 W/m² | - |
| 1788016920 | 22.22° C | 80% | 1029.4 hPa | 0 mm | - | 163 W/m² | - |
| 1788016617 | 22.22° C | 83% | 1029.2 hPa | 0 mm | - | 115 W/m² | - |
| 1788016318 | 22.22° C | 83% | 1029.2 hPa | 0 mm | - | 115 W/m² | - |
| 1788016021 | 22.22° C | 84% | 1029.2 hPa | 0 mm | - | 142 W/m² | - |
| 1788015718 | 22.22° C | 82% | 1028.8 hPa | 0 mm | - | 170 W/m² | - |
| 1788015419 | 22.22° C | 82% | 1028.8 hPa | 0 mm | - | 170 W/m² | - |
| 1788015120 | 22.22° C | 82% | 1029.1 hPa | 0 mm | - | 609 W/m² | - |
| 1788014825 | 22.22° C | 81% | 1029 hPa | 0 mm | - | 130 W/m² | - |
| 1788014520 | 22.22° C | 81% | 1029 hPa | 0 mm | - | 130 W/m² | - |
| 1788014220 | 22.22° C | 80% | 1029 hPa | 0 mm | - | 138 W/m² | - |
| 1788013921 | 22.22° C | 82% | 1029.4 hPa | 0 mm | - | 304 W/m² | - |
| 1788013619 | 22.22° C | 82% | 1029.4 hPa | 0 mm | - | 304 W/m² | - |
| 1788013320 | 21.67° C | 82% | 1029.4 hPa | 0 mm | - | 230 W/m² | - |
| 1788013020 | 21.67° C | 82% | 1029.4 hPa | 0 mm | - | 138 W/m² | - |
* Rain latest hour (hover to see other rain measurements)
** Current wind speed in m/s (hover to see current wind gust speed)